Flag for Indonesia Weather past 2 weeks in Makassar, South Sulawesi, Indonesia

Now
86 °F

Scattered clouds.


Feels Like: 95 °F
Forecast: 78 / 87 °F
Wind: 6 mph from West

Location: Ujung Pandang / Hasanuddin

Current Time: Jan 25, 2015 at 11:58:46 AM

Latest Report: Jan 25, 2015 at 11:00 AM


Visibility: 6 mi

Pressure: 29.89 "Hg

Humidity: 70%

Dew point: 75 °F

Location of MakassarLocation

Historic Weather in Makassar — Graph

°F

Makassar temperature yesterday

Maximum temperature yesterday: 88 °F (at 11:00 AM)
Minimum temperature yesterday: 75 °F (at 5:30 AM)
Average temperature yesterday: 82 °F

Past Weeks' High & Low Weather Summary

 TemperatureHumidityPressure
High91 °F (Jan 13, 12:30 PM)100% (Jan 11, 12:30 AM)29.98 "Hg (Jan 11, 12:30 AM)
Low73 °F (Jan 21, 6:00 AM)52% (Jan 21, 1:30 PM)29.74 "Hg (Jan 10, 3:00 PM)
Average80 °F86%29.87 "Hg
* Reported Jan 10 10:00 AM — Jan 25 10:00 AM, Makassar, Weather by CustomWeather, © 2014

Note: Actual official high and low records may vary slightly from our data, if they occured in-between our weather recording intervals... More about our weather records

Advertising

Makassar weather history for previous 24 hours

 ConditionsComfort  
Time TempWeatherWind HumidityBarometerVisibility
10:00 AM
Jan 25
86 °FScattered clouds.7 mph75%29.92 "Hg6 mi
9:30 AM86 °FScattered clouds.5 mph75%29.92 "HgN/A
9:00 AM86 °FPassing clouds.3 mph79%29.92 "HgN/A
8:30 AM84 °FPassing clouds.3 mph79%29.92 "Hg6 mi
8:00 AM82 °FPassing clouds.3 mph79%29.89 "Hg6 mi
7:30 AM79 °FPassing clouds.3 mph84%29.89 "Hg6 mi
7:00 AM77 °FScattered clouds.3 mph89%29.89 "Hg6 mi
6:30 AM75 °FPassing clouds.2 mph94%29.86 "Hg6 mi
6:00 AM75 °FPassing clouds.3 mph94%29.86 "Hg5 mi
5:30 AM75 °FPassing clouds.2 mph94%29.86 "Hg5 mi
5:00 AM75 °FPassing clouds.2 mph94%29.86 "Hg5 mi
4:30 AM75 °FPassing clouds.2 mph94%29.86 "Hg5 mi
4:00 AM75 °FPassing clouds.3 mph94%29.83 "Hg5 mi
3:30 AM75 °FPassing clouds.3 mph94%29.83 "Hg5 mi
3:00 AM77 °FPassing clouds.2 mph94%29.83 "Hg5 mi
2:30 AM77 °FPassing clouds.3 mph89%29.83 "Hg5 mi
2:00 AM77 °FPassing clouds.2 mph94%29.86 "Hg5 mi
1:30 AM77 °FPassing clouds.3 mph94%29.86 "Hg5 mi
1:00 AM77 °FPassing clouds.3 mph94%29.86 "Hg5 mi
12:30 AM77 °FPassing clouds.3 mph94%29.89 "Hg5 mi
12:00 AM77 °FPassing clouds.3 mph94%29.89 "Hg5 mi
11:30 PM
Jan 24
77 °FPassing clouds.5 mph100%29.92 "Hg5 mi
11:00 PM79 °FPassing clouds.2 mph94%29.92 "Hg5 mi
10:30 PM79 °FPassing clouds.2 mph94%29.92 "Hg5 mi
10:00 PM79 °FPassing clouds.2 mph94%29.92 "Hg5 mi
9:30 PM79 °FPassing clouds.2 mph100%29.92 "Hg5 mi
9:00 PM79 °FPassing clouds.2 mph100%29.92 "Hg5 mi
8:30 PM79 °FPassing clouds.3 mph94%29.89 "Hg5 mi
8:00 PM81 °FPassing clouds.3 mph89%29.89 "Hg5 mi
7:30 PM81 °FPassing clouds.2 mph89%29.89 "Hg5 mi
7:00 PM82 °FPassing clouds.3 mph84%29.86 "Hg6 mi
6:30 PM84 °FPassing clouds.2 mph74%29.86 "Hg6 mi
6:00 PM84 °FScattered clouds.2 mph74%29.86 "Hg6 mi
5:30 PM84 °FScattered clouds.3 mph79%29.86 "HgN/A
5:00 PM84 °FScattered clouds.5 mph74%29.83 "HgN/A
4:30 PM84 °FScattered clouds.6 mph74%29.83 "HgN/A
4:00 PM84 °FScattered clouds.7 mph74%29.83 "HgN/A
3:30 PM84 °FScattered clouds.8 mph74%29.83 "HgN/A
3:00 PM86 °FScattered clouds.8 mph75%29.83 "HgN/A
2:30 PM88 °FScattered clouds.10 mph70%29.83 "HgN/A
2:00 PM88 °FScattered clouds.9 mph66%29.83 "HgN/A
1:30 PM88 °FScattered clouds.8 mph66%29.86 "HgN/A
1:00 PM88 °FScattered clouds.8 mph70%29.86 "HgN/A
12:30 PM86 °FScattered clouds.10 mph75%29.86 "HgN/A
12:00 PM88 °FScattered clouds.9 mph66%29.86 "HgN/A
11:30 AM86 °FScattered clouds.7 mph70%29.89 "HgN/A
11:00 AM88 °FScattered clouds.6 mph66%29.89 "HgN/A
Weather by CustomWeather, © 2014

See weather overviewHow to use our weather pages